This is the latest recevied weather packets stored in our database for station/object K7CTM. If no packets are shown the sender has not sent any weather packets the latest 10 day(s).
| Time | Temp. | Humidity | Pressure | Rain* | Wind** | Luminosity | Snow |
|---|---|---|---|---|---|---|---|
| 1777438834 | 4.44° C | 72% | 1029.4 hPa | 0 mm | - | 0 W/m² | - |
| 1777438531 | 4.44° C | 74% | 1029.5 hPa | 0 mm | - | 0 W/m² | - |
| 1777438227 | 4.44° C | 73% | 1029.5 hPa | 0 mm | - | 0 W/m² | - |
| 1777437923 | 4.44° C | 74% | 1029.4 hPa | 0 mm | - | 0 W/m² | - |
| 1777437620 | 4.44° C | 77% | 1029.4 hPa | 0 mm | - | 0 W/m² | - |
| 1777437316 | 4.44° C | 72% | 1029.6 hPa | 0 mm | - | 0 W/m² | - |
| 1777437012 | 5° C | 72% | 1029.4 hPa | 0 mm | - | 0 W/m² | - |
| 1777436709 | 4.44° C | 72% | 1029.4 hPa | 0 mm | - | 0 W/m² | - |
| 1777436405 | 4.44° C | 76% | 1029.4 hPa | 0 mm | - | 0 W/m² | - |
| 1777436101 | 5° C | 73% | 1029.2 hPa | 0 mm | - | 0 W/m² | - |
| 1777435799 | 5.56° C | 71% | 1029.1 hPa | 0 mm | - | 0 W/m² | - |
| 1777435494 | 5.56° C | 72% | 1029.2 hPa | 0 mm | - | 0 W/m² | - |
| 1777435190 | 5.56° C | 72% | 1029.2 hPa | 0 mm | - | 0 W/m² | - |
| 1777434884 | 5.56° C | 72% | 1029.2 hPa | 0 mm | - | 0 W/m² | - |
| 1777434584 | 5.56° C | 73% | 1029.1 hPa | 0 mm | - | 0 W/m² | - |
| 1777434281 | 5° C | 73% | 1029.1 hPa | 0 mm | - | 0 W/m² | - |
| 1777433978 | 5.56° C | 74% | 1028.9 hPa | 0 mm | - | 0 W/m² | - |
| 1777433675 | 5° C | 74% | 1029 hPa | 0 mm | - | 0 W/m² | - |
| 1777433371 | 5° C | 75% | 1028.9 hPa | 0 mm | - | 0 W/m² | - |
| 1777433067 | 5° C | 77% | 1028.9 hPa | 0 mm | - | 0 W/m² | - |
| 1777432762 | 5.56° C | 74% | 1029 hPa | 0 mm | - | 0 W/m² | - |
| 1777432459 | 5.56° C | 72% | 1028.9 hPa | 0 mm | - | 0 W/m² | - |
| 1777432154 | 5.56° C | 72% | 1028.7 hPa | 0 mm | - | 0 W/m² | - |
| 1777431853 | 6.11° C | 70% | 1028.7 hPa | 0 mm | - | 0 W/m² | - |
| 1777431550 | 6.67° C | 67% | 1028.6 hPa | 0 mm | - | 0 W/m² | - |
* Rain latest hour (hover to see other rain measurements)
** Current wind speed in m/s (hover to see current wind gust speed)